FW6750 Weather Reports


time (UTC)temp
C
wind
direction
speed
KPH
gust
KPH
rain 1hr
cm
rain 24hr
cm
rain mn
cm
humidity
%
barometer
mb
20260510171053 32 190 4.8 17.7 0.00 0.00 0.00 62 1016.5
20260510170552 32 11 4.8 19.3 0.00 0.00 0.00 62 1016.4
20260510170109 31 288 4.8 19.3 0.00 0.00 0.00 64 1016.5
20260510165552 31 248 8.0 22.5 0.00 0.00 0.00 65 1016.5
20260510165052 30 302 11.3 22.5 0.00 0.00 0.00 68 1016.5
20260510164604 30 303 9.7 20.9 0.00 0.00 0.00 66 1016.6
20260510164052 31 274 9.7 20.9 0.00 0.00 0.00 63 1016.7
20260510163552 32 283 6.4 17.7 0.00 0.00 0.00 60 1016.7
20260510163059 32 270 4.8 17.7 0.00 0.00 0.00 60 1016.7
20260510162551 32 263 4.8 16.1 0.00 0.00 0.00 60 1016.7
20260510162048 32 247 6.4 14.5 0.00 0.00 0.00 64 1016.8
20260510161554 32 298 1.6 11.3 0.00 0.00 0.00 63 1016.7
20260510161049 32 280 3.2 14.5 0.00 0.00 0.00 62 1016.8
20260510160549 33 175 6.4 14.5 0.00 0.00 0.00 61 1016.8
20260510155552 31 219 1.6 14.5 0.00 0.00 0.00 65 1016.8
20260510155052 30 261 3.2 14.5 0.00 0.00 0.00 67 1016.8
20260510154604 30 271 1.6 6.4 0.00 0.00 0.00 70 1016.9
20260510154053 29 232 0.0 14.5 0.00 0.00 0.00 74 1017.0
20260510153552 30 281 6.4 14.5 0.00 0.00 0.00 69 1016.9
20260510153051 30 281 3.2 9.7 0.00 0.00 0.00 69 1017.0
20260510152552 30 268 1.6 12.9 0.00 0.00 0.00 67 1017.1
20260510152049 30 223 3.2 12.9 0.00 0.00 0.00 67 1017.0
20260510151550 30 178 3.2 12.9 0.00 0.00 0.00 66 1016.9
20260510151049 30 0 3.2 12.9 0.00 0.00 0.00 67 1016.9
20260510150552 31 210 3.2 12.9 0.00 0.00 0.00 69 1017.0
20260510150053 30 190 1.6 8.0 0.00 0.00 0.00 71 1017.0
20260510145552 30 219 3.2 9.7 0.00 0.00 0.00 70 1017.1
20260510145050 29 171 3.2 9.7 0.00 0.00 0.00 72 1017.1
20260510144609 29 292 1.6 12.9 0.00 0.00 0.00 72 1017.1
20260510144053 29 222 3.2 12.9 0.00 0.00 0.00 73 1017.1
20260510143549 28 243 1.6 9.7 0.00 0.00 0.00 74 1017.0
20260510143055 28 180 3.2 9.7 0.00 0.00 0.00 76 1017.0
20260510142551 28 298 3.2 9.7 0.00 0.00 0.00 75 1017.0
20260510142049 28 211 3.2 8.0 0.00 0.00 0.00 75 1016.9
20260510141553 28 210 1.6 6.4 0.00 0.00 0.00 78 1016.8
20260510141053 27 269 3.2 6.4 0.00 0.00 0.00 80 1016.8
20260510140555 27 192 1.6 6.4 0.00 0.00 0.00 81 1016.8
20260510140053 27 202 1.6 6.4 0.00 0.00 0.00 81 1016.8
20260510135552 27 185 3.2 8.0 0.00 0.00 0.00 80 1016.8
20260510135052 27 202 3.2 9.7 0.00 0.00 0.00 79 1016.8
20260510134555 27 182 1.6 9.7 0.00 0.00 0.00 78 1016.8
20260510134050 27 195 1.6 6.4 0.00 0.00 0.00 78 1016.7
20260510133554 27 205 3.2 6.4 0.00 0.00 0.00 79 1016.7
20260510133053 26 211 3.2 6.4 0.00 0.00 0.00 80 1016.7
20260510132552 26 207 1.6 9.7 0.00 0.00 0.00 80 1016.7
20260510132056 26 184 1.6 9.7 0.00 0.00 0.00 80 1016.6
20260510131552 26 164 4.8 9.7 0.00 0.00 0.00 82 1016.4
20260510131051 26 180 3.2 9.7 0.00 0.00 0.00 84 1016.4
20260510130549 25 177 3.2 9.7 0.00 0.00 0.00 86 1016.5
20260510130050 25 170 1.6 6.4 0.00 0.00 0.00 88 1016.6
20260510125549 24 170 1.6 8.0 0.00 0.00 0.00 89 1016.6
20260510125052 23 170 3.2 8.0 0.00 0.00 0.00 90 1016.6
20260510124604 23 164 3.2 8.0 0.00 0.00 0.00 91 1016.6
20260510124053 23 360 1.6 4.8 0.00 0.00 0.00 91 1016.7
20260510123553 23 360 0.0 3.2 0.00 0.00 0.00 92 1016.6
20260510123055 22 0 0.0 3.2 0.00 0.00 0.00 92 1016.4
20260510122552 22 360 0.0 3.2 0.00 0.00 0.00 92 1016.3
20260510122052 22 0 0.0 3.2 0.00 0.00 0.00 92 1016.3
20260510121554 22 0 0.0 3.2 0.00 0.00 0.00 93 1016.2
20260510121054 22 0 0.0 1.6 0.00 0.00 0.00 93 1016.2
20260510120552 22 0 0.0 1.6 0.00 0.00 0.00 93 1016.2
20260510120105 22 0 0.0 1.6 0.00 0.00 0.00 93 1016.1
20260510115552 22 0 0.0 1.6 0.00 0.00 0.00 93 1015.9
20260510115049 22 0 0.0 0.0 0.00 0.00 0.00 93 1015.8
20260510114551 21 0 0.0 0.0 0.00 0.00 0.00 93 1015.7
20260510114051 21 0 0.0 0.0 0.00 0.00 0.00 93 1015.6
20260510113548 21 0 0.0 1.6 0.00 0.00 0.00 93 1015.5
20260510113052 21 0 0.0 3.2 0.00 0.00 0.00 93 1015.4
20260510112553 21 0 1.6 3.2 0.00 0.00 0.00 92 1015.3
20260510112049 21 0 0.0 1.6 0.00 0.00 0.00 93 1015.3
20260510111551 21 0 0.0 0.0 0.00 0.00 0.00 93 1015.2
20260510111052 21 0 0.0 0.0 0.00 0.00 0.00 92 1015.2
20260510110555 21 0 0.0 0.0 0.00 0.00 0.00 92 1015.1
20260510110055 21 0 0.0 0.0 0.00 0.00 0.00 92 1015.1
20260510105552 21 0 0.0 0.0 0.00 0.00 0.00 92 1015.0
20260510105051 21 0 0.0 0.0 0.00 0.00 0.00 92 1014.9
20260510104601 21 0 0.0 0.0 0.00 0.00 0.00 92 1014.9
20260510104052 21 0 0.0 0.0 0.00 0.00 0.00 92 1014.7
20260510103552 21 0 0.0 0.0 0.00 0.00 0.00 92 1014.7
20260510103052 21 0 0.0 1.6 0.00 0.00 0.00 92 1014.7
20260510102552 21 0 0.0 1.6 0.00 0.00 0.00 92 1014.7
20260510102051 21 0 0.0 1.6 0.00 0.00 0.00 92 1014.6
20260510101551 21 0 0.0 0.0 0.00 0.00 0.00 92 1014.6
20260510101051 21 0 0.0 0.0 0.00 0.00 0.00 92 1014.6
20260510100549 21 0 0.0 0.0 0.00 0.00 0.00 92 1014.5
20260510100052 21 0 0.0 0.0 0.00 0.00 0.00 92 1014.4
20260510095549 21 0 0.0 0.0 0.00 0.00 0.00 91 1014.4
20260510095052 21 0 0.0 1.6 0.00 0.00 0.00 91 1014.4
20260510094603 21 0 0.0 1.6 0.00 0.00 0.00 91 1014.4
20260510094054 21 158 0.0 1.6 0.00 0.00 0.00 91 1014.4
20260510093548 21 0 0.0 0.0 0.00 0.00 0.00 91 1014.3
20260510093112 21 0 0.0 0.0 0.00 0.00 0.00 91 1014.2
20260510092551 21 0 0.0 0.0 0.00 0.00 0.00 91 1014.2
20260510092051 21 0 0.0 0.0 0.00 0.00 0.00 91 1014.1
20260510091553 21 0 0.0 0.0 0.00 0.00 0.00 91 1014.1
20260510091052 21 0 0.0 0.0 0.00 0.00 0.00 91 1014.1
20260510090552 21 0 0.0 0.0 0.00 0.00 0.00 91 1014.1
20260510090052 21 0 0.0 0.0 0.00 0.00 0.00 91 1013.9
20260510085552 21 0 0.0 0.0 0.00 0.00 0.00 91 1013.9
20260510085051 21 0 0.0 1.6 0.00 0.00 0.00 90 1013.8
20260510084600 21 0 0.0 1.6 0.00 0.00 0.00 90 1013.8
20260510084052 21 0 0.0 0.0 0.00 0.00 0.00 90 1013.8
20260510083551 22 0 0.0 0.0 0.00 0.00 0.00 90 1013.7
20260510083059 22 0 0.0 0.0 0.00 0.00 0.00 90 1013.7
20260510082550 22 0 0.0 1.6 0.00 0.00 0.00 90 1013.7
20260510082050 22 0 0.0 1.6 0.00 0.00 0.00 89 1013.7
20260510081553 22 0 0.0 1.6 0.00 0.00 0.00 89 1013.6
20260510081054 22 0 0.0 3.2 0.00 0.00 0.00 89 1013.6
20260510080553 22 0 0.0 4.8 0.00 0.00 0.00 89 1013.6
20260510080052 22 158 0.0 8.0 0.00 0.00 0.00 89 1013.6
20260510075550 22 158 1.6 8.0 0.00 0.00 0.00 89 1013.7
20260510075050 22 158 3.2 8.0 0.00 0.00 0.00 89 1013.6
20260510074550 22 158 3.2 8.0 0.00 0.00 0.00 89 1013.6
20260510074050 22 157 3.2 8.0 0.00 0.00 0.00 89 1013.6
20260510073550 22 157 1.6 4.8 0.00 0.00 0.00 89 1013.6
20260510073052 22 156 1.6 9.7 0.00 0.00 0.00 89 1013.6
20260510072552 22 156 3.2 9.7 0.00 0.00 0.00 89 1013.6
20260510072050 22 165 3.2 9.7 0.00 0.00 0.00 89 1013.5
20260510071554 22 175 4.8 9.7 0.00 0.00 0.00 89 1013.4
20260510071049 22 163 4.8 9.7 0.00 0.00 0.00 89 1013.3
20260510070552 22 157 6.4 9.7 0.00 0.00 0.00 89 1013.5
20260510070056 22 161 4.8 9.7 0.00 0.00 0.00 89 1013.7
20260510065553 22 157 3.2 9.7 0.00 0.00 0.00 89 1013.6
20260510065051 22 151 4.8 11.3 0.00 0.00 0.00 89 1013.7
20260510064549 22 158 4.8 11.3 0.00 0.00 0.00 89 1013.7
20260510064051 22 163 3.2 11.3 0.00 0.00 0.00 89 1013.7
20260510063553 22 160 4.8 12.9 0.00 0.00 0.00 89 1013.8
20260510063051 22 158 6.4 12.9 0.00 0.00 0.00 89 1013.9
20260510062551 22 156 4.8 9.7 0.00 0.00 0.00 89 1014.0
20260510062050 22 157 3.2 9.7 0.00 0.00 0.00 89 1014.1
20260510061553 22 160 3.2 9.7 0.00 0.00 0.00 89 1014.1
20260510061050 22 166 3.2 8.0 0.00 0.00 0.00 88 1014.2
20260510060550 22 172 1.6 8.0 0.00 0.00 0.00 88 1014.3
20260510060053 22 172 1.6 8.0 0.00 0.00 0.00 88 1014.4
20260510055550 22 173 1.6 4.8 0.00 0.00 0.00 88 1014.5
20260510055050 22 173 1.6 4.8 0.00 0.00 0.00 88 1014.6
20260510054551 22 173 1.6 4.8 0.00 0.00 0.00 88 1014.6
20260510054050 22 175 1.6 3.2 0.00 0.00 0.00 88 1014.7
20260510053549 22 175 1.6 3.2 0.00 0.00 0.00 88 1014.9
20260510053101 22 175 0.0 3.2 0.00 0.00 0.00 88 1014.9
20260510052549 22 0 0.0 3.2 0.00 0.00 0.00 88 1015.0
20260510052050 22 175 0.0 3.2 0.00 0.00 0.00 88 1015.0
20260510051553 22 175 0.0 3.2 0.00 0.00 0.00 88 1015.0
20260510051107 22 0 0.0 1.6 0.00 0.00 0.00 88 1015.1
20260510050553 22 175 0.0 1.6 0.00 0.00 0.00 87 1015.2
20260510050055 22 0 0.0 1.6 0.00 0.00 0.00 87 1015.2
20260510045550 22 0 0.0 0.0 0.00 0.00 0.00 87 1015.3
20260510045050 22 0 0.0 1.6 0.00 0.00 0.00 87 1015.3
20260510044554 22 0 0.0 3.2 0.00 0.00 0.00 87 1015.3
20260510044051 22 0 0.0 3.2 0.00 0.00 0.00 87 1015.4
20260510043550 22 175 0.0 3.2 0.00 0.00 0.00 87 1015.4
20260510043101 22 0 0.0 0.0 0.00 0.00 0.00 87 1015.5
20260510042549 22 0 0.0 0.0 0.00 0.00 0.00 87 1015.6
20260510042054 22 0 0.0 0.0 0.00 0.00 0.00 87 1015.6
20260510041558 22 0 0.0 0.0 0.00 0.00 0.00 86 1015.6
20260510041050 22 0 0.0 1.6 0.00 0.00 0.00 86 1015.6
20260510040549 22 0 0.0 3.2 0.00 0.00 0.00 86 1015.6
20260510040055 22 0 0.0 3.2 0.00 0.00 0.00 86 1015.6
20260510035549 22 175 0.0 1.6 0.00 0.00 0.00 86 1015.6
20260510035052 22 0 0.0 0.0 0.00 0.00 0.00 85 1015.6
20260510034559 22 0 0.0 0.0 0.00 0.00 0.00 85 1015.7
20260510034050 22 0 0.0 0.0 0.00 0.00 0.00 85 1015.7
20260510033551 22 0 0.0 0.0 0.00 0.00 0.00 85 1015.6
20260510033104 22 0 0.0 1.6 0.00 0.00 0.00 85 1015.6
20260510032550 23 0 0.0 1.6 0.00 0.00 0.00 85 1015.6
20260510032050 23 0 0.0 3.2 0.00 0.00 0.00 85 1015.6
20260510031553 23 0 0.0 3.2 0.00 0.00 0.00 85 1015.5
20260510031051 23 0 0.0 3.2 0.00 0.00 0.00 85 1015.7
20260510030550 23 360 0.0 1.6 0.00 0.00 0.00 85 1015.5
20260510025550 23 360 0.0 3.2 0.00 0.00 0.00 85 1015.5
20260510025049 23 360 0.0 1.6 0.00 0.00 0.00 85 1015.4
20260510024552 23 0 0.0 1.6 0.00 0.00 0.00 85 1015.3
20260510024049 22 0 0.0 1.6 0.00 0.00 0.00 85 1015.3
20260510023552 22 0 0.0 3.2 0.00 0.00 0.00 85 1015.4
20260510023051 22 0 0.0 3.2 0.00 0.00 0.00 85 1015.3
20260510022551 22 0 0.0 3.2 0.00 0.00 0.00 85 1015.2
20260510022050 22 0 0.0 3.2 0.00 0.00 0.00 85 1015.2
20260510021554 22 0 0.0 3.2 0.00 0.00 0.00 85 1015.0
20260510021050 22 0 1.6 3.2 0.00 0.00 0.00 85 1015.0
20260510020551 22 360 0.0 3.2 0.00 0.00 0.00 85 1015.0
20260510020054 22 360 0.0 3.2 0.00 0.00 0.00 85 1014.8
20260510015551 22 0 0.0 3.2 0.00 0.00 0.00 85 1014.7
20260510015050 22 0 0.0 3.2 0.00 0.00 0.00 85 1014.7
20260510014556 22 360 1.6 3.2 0.00 0.00 0.00 85 1014.8
20260510014050 22 0 0.0 4.8 0.00 0.00 0.00 85 1014.7
20260510013550 23 0 0.0 4.8 0.00 0.00 0.00 85 1014.7
20260510013054 23 360 1.6 4.8 0.00 0.00 0.00 85 1014.6
20260510012550 23 360 1.6 4.8 0.00 0.00 0.00 85 1014.4
20260510012050 23 360 0.0 3.2 0.00 0.00 0.00 85 1014.5
20260510011555 23 0 0.0 3.2 0.00 0.00 0.00 84 1014.6
20260510011049 23 0 0.0 4.8 0.00 0.00 0.00 84 1014.6
20260510010551 23 360 0.0 4.8 0.00 0.00 0.00 84 1014.5
20260510010051 23 360 0.0 1.6 0.00 0.00 0.00 83 1014.3
20260510005552 23 0 0.0 4.8 0.00 0.00 0.00 83 1014.1
20260510005051 23 0 1.6 4.8 0.00 0.00 0.00 83 1014.3
20260510004553 23 360 0.0 8.0 0.00 0.00 0.00 82 1014.1
20260510004051 23 0 1.6 8.0 0.00 0.00 0.00 82 1014.0
20260510003550 23 360 3.2 8.0 0.00 0.00 0.00 81 1013.9
20260510003049 23 360 3.2 8.0 0.00 0.00 0.00 81 1014.0
20260510002551 23 360 1.6 8.0 0.00 0.00 0.00 81 1013.8
20260510002050 23 360 3.2 8.0 0.00 0.00 0.00 81 1013.9
20260510001553 23 360 4.8 9.7 0.00 0.00 0.00 80 1014.0
20260510001051 23 360 3.2 12.9 0.00 0.00 0.00 80 1014.0
20260510000554 23 360 3.2 12.9 0.00 0.00 0.00 80 1014.0
20260510000059 23 360 4.8 12.9 0.00 0.00 0.00 80 1014.0
20260509235553 23 360 3.2 9.7 0.00 0.00 0.00 80 1013.9
20260509235050 23 360 3.2 9.7 0.00 0.00 0.00 80 1014.0
20260509234554 23 360 1.6 12.9 0.00 0.00 0.00 80 1013.9
20260509234050 24 360 3.2 12.9 0.00 0.00 0.00 79 1013.9
20260509233549 24 360 6.4 14.5 0.00 0.00 0.00 79 1013.6
20260509233056 24 360 6.4 19.3 0.00 0.00 0.00 79 1013.7
20260509232553 24 360 6.4 19.3 0.00 0.00 0.00 79 1013.7
20260509232052 24 360 8.0 19.3 0.00 0.00 0.00 78 1013.8
20260509231557 24 360 8.0 19.3 0.00 0.00 0.00 79 1013.9
20260509231049 24 360 4.8 16.1 0.00 0.00 0.00 78 1014.0
20260509230549 24 360 6.4 19.3 0.00 0.00 0.00 78 1014.0
20260509230058 24 360 9.7 19.3 0.00 0.00 0.00 78 1014.0
20260509225551 25 360 9.7 16.1 0.00 0.00 0.00 78 1014.0
20260509225050 25 360 6.4 16.1 0.00 0.00 0.00 78 1013.9
20260509224558 25 360 6.4 20.9 0.00 0.00 0.00 78 1013.8
20260509224051 25 360 6.4 22.5 0.00 0.00 0.00 78 1013.8
20260509223553 25 360 8.0 22.5 0.00 0.00 0.00 77 1014.0
20260509223101 26 360 6.4 19.3 0.00 0.00 0.00 77 1013.9
20260509222551 26 360 8.0 19.3 0.00 0.00 0.00 77 1013.7
20260509222050 26 360 4.8 16.1 0.00 0.00 0.00 76 1013.6
20260509221555 27 360 6.4 16.1 0.00 0.00 0.00 74 1013.4
20260509221051 27 360 3.2 9.7 0.00 0.00 0.00 73 1013.2
20260509220549 27 360 3.2 12.9 0.00 0.00 0.00 72 1013.2
20260509220051 27 360 3.2 12.9 0.00 0.00 0.00 71 1013.2
20260509215552 27 360 4.8 12.9 0.00 0.00 0.00 71 1013.3
20260509215051 27 360 4.8 14.5 0.00 0.00 0.00 71 1013.2
20260509214624 27 360 3.2 14.5 0.00 0.00 0.00 71 1013.1
20260509214049 27 360 4.8 12.9 0.00 0.00 0.00 70 1013.0
20260509213549 28 360 4.8 9.7 0.00 0.00 0.00 70 1013.0
20260509213056 28 360 3.2 17.7 0.00 0.00 0.00 69 1012.9
20260509212551 28 360 4.8 17.7 0.00 0.00 0.00 69 1012.9
20260509212051 28 360 4.8 14.5 0.00 0.00 0.00 69 1012.9
20260509211555 28 298 4.8 16.1 0.00 0.00 0.00 69 1012.9
20260509211051 28 264 4.8 16.1 0.00 0.00 0.00 69 1012.8
20260509210549 28 290 6.4 16.1 0.00 0.00 0.00 69 1012.7
20260509210107 28 314 6.4 14.5 0.00 0.00 0.00 68 1012.7
20260509205550 28 287 6.4 17.7 0.00 0.00 0.00 68 1012.8
20260509205050 28 296 8.0 17.7 0.00 0.00 0.00 68 1012.8
20260509204554 29 287 4.8 16.1 0.00 0.00 0.00 68 1012.8
20260509204050 28 310 4.8 19.3 0.00 0.00 0.00 70 1012.9
20260509203551 28 5 8.0 19.3 0.00 0.00 0.00 70 1012.8
20260509203105 28 321 9.7 19.3 0.00 0.00 0.00 70 1012.8
20260509202549 28 331 4.8 16.1 0.00 0.00 0.00 70 1012.7
20260509202050 28 297 6.4 16.1 0.00 0.00 0.00 70 1012.7
20260509201556 28 281 6.4 17.7 0.00 0.00 0.00 69 1012.7
20260509201053 28 282 8.0 17.7 0.00 0.00 0.00 69 1012.8
20260509200551 28 325 6.4 16.1 0.00 0.00 0.00 69 1012.8
20260509200058 28 310 6.4 19.3 0.00 0.00 0.00 70 1012.9
20260509195550 28 288 8.0 19.3 0.00 0.00 0.00 68 1012.8
20260509195052 29 275 8.0 17.7 0.00 0.00 0.00 67 1012.9
20260509194554 29 319 9.7 20.9 0.00 0.00 0.00 65 1012.8
20260509194051 29 277 3.2 20.9 0.00 0.00 0.00 65 1012.8
20260509193551 29 266 8.0 20.9 0.00 0.00 0.00 64 1012.8
20260509193058 29 222 9.7 19.3 0.00 0.00 0.00 64 1012.8
20260509192553 29 254 8.0 19.3 0.00 0.00 0.00 65 1012.7
20260509192053 29 266 3.2 24.1 0.00 0.00 0.00 66 1012.9
20260509191600 29 0 12.9 24.1 0.00 0.00 0.00 65 1012.9
20260509191053 30 290 8.0 19.3 0.00 0.00 0.00 66 1013.2
20260509190551 30 271 4.8 22.5 0.00 0.00 0.00 66 1013.1
20260509190056 30 288 8.0 25.7 0.00 0.00 0.00 66 1013.2
20260509185550 30 310 9.7 25.7 0.00 0.00 0.00 65 1013.2
20260509185050 30 286 11.3 20.9 0.00 0.00 0.00 65 1013.1
20260509184559 30 265 6.4 19.3 0.00 0.00 0.00 65 1013.1
20260509184049 30 273 3.2 19.3 0.00 0.00 0.00 64 1013.0
20260509183552 30 196 3.2 19.3 0.00 0.00 0.00 63 1013.1
20260509183058 30 269 4.8 17.7 0.00 0.00 0.00 63 1013.1
20260509182553 30 286 4.8 11.3 0.00 0.00 0.00 67 1013.2
20260509182049 29 221 1.6 8.0 0.00 0.00 0.00 68 1013.2
20260509181549 29 304 3.2 12.9 0.00 0.00 0.00 71 1013.2
20260509181052 30 348 3.2 14.5 0.00 0.00 0.00 70 1013.1
20260509180552 30 323 4.8 14.5 0.00 0.00 0.00 67 1013.2
20260509180055 30 294 6.4 14.5 0.00 0.00 0.00 68 1013.4
20260509175551 30 290 4.8 17.7 0.00 0.00 0.00 68 1013.3
20260509175052 29 292 3.2 17.7 0.00 0.00 0.00 69 1013.4
20260509174603 30 340 6.4 14.5 0.00 0.00 0.00 67 1013.6
20260509174049 31 306 3.2 14.5 0.00 0.00 0.00 66 1013.4
20260509173549 30 311 9.7 17.7 0.00 0.00 0.00 65 1013.5
20260509173052 30 265 6.4 17.7 0.00 0.00 0.00 65 1013.6
20260509172550 31 259 4.8 16.1 0.00 0.00 0.00 64 1013.6
20260509172050 31 343 3.2 14.5 0.00 0.00 0.00 64 1013.5
20260509171555 31 36 4.8 11.3 0.00 0.00 0.00 63 1013.5